Regional Weather Roundup
Issued by NWS

Home | Current Version | Previous Version | Text Only | Print | Product List | Glossary On
Versions: 1 2 3 4 5 6 7 8 9 10 11 12 13 14 15 16 17 18 19 20 21 22 23 24 25 26 27 28 29 30 31 32 33 34 35 36 37 38 39 40 41 42 43 44 45 46 47 48 49 50
000
ASUS42 KTBW 281117
RWRFL
FLORIDA REGIONAL WEATHER ROUNDUP
NATIONAL WEATHER SERVICE TAMPA BAY RUSKIN FL
700 AM EDT TUE JUL 28 2015

NOTE: "FAIR" INDICATES FEW OR NO CLOUDS BELOW 12,000 FEET WITH NO
SIGNIFICANT WEATHER AND/OR OBSTRUCTIONS TO VISIBILITY.


FLZ001>010-012>015-112-114-115-281200-
PANHANDLE FLORIDA

CITY           SKY/WX    TMP DP  RH WIND       PRES   REMARKS
PENSACOLA      CLEAR     79  72  79 NW5       29.97R
PENSACOLA NAS  MOCLDY    78  73  84 NW3       29.97R
MILTON NAS     PTCLDY    76  72  87 NW3       29.98
CRESTVIEW      CLEAR     72  71  97 CALM      29.98R FOG
DUKE FIELD     FAIR      73  71  91 CALM      29.96R
VALPARAISO     PTCLDY    77  71  83 NW2       29.96R
MARY ESTHER    CLEAR     77  72  85 N3        29.95R
TRI COUNTY     FAIR      75  74  96 CALM      29.97R
PANAMA CITY    FAIR      77  74  90 CALM      29.95R
TYNDALL AFB    MOCLDY    77  74  89 CALM      29.96R
APALACHICOLA   MOCLDY    79  76  90 N3        29.94R

STATION/POSITION SKY/WX   TEMP    WIND        PRES    WAVE   SWELL
                          AIR SEA DIR/SP/G            HT/PER HT/PER
                          (F)     (DEG/KT/KT) (MB)    (FT/S) (FT/S)
30.1N   87.6W              83 84  330/  8/ 10 1014.2R   1
29.2N   88.2W              85 87  310/  6/  8 1015.2R   1
28.8N   86.0W              86 86  290/ 12/ 14 1014.7R   1/ 3
PANAMA CITY BEAC           79 82   20/  3/  5 1013.6R
CAPE SAN BLAS    NOT AVBL
TOWER C                    83     350/  7/  7 1013.8R
28.5N   84.5W              86 85  300/ 16/ 17 1013.2R   3/ 4

$$
FLZ011-016>038-118-127-128-134-139-239-281200-
NORTH FLORIDA

CITY           SKY/WX    TMP DP  RH WIND       PRES   REMARKS
MARIANNA       PTCLDY    76  75  97 CALM      29.96R
TALLAHASSEE    PTCLDY    76  74  93 CALM      29.95R
PERRY          MOCLDY    74  74 100 N3        29.95S FOG
CROSS CITY       N/A     76  75  97 CALM      29.93R
LAKE CITY      MOCLDY    73  73 100 N3        29.95R FOG
GAINESVILLE    CLOUDY    75  73  93 CALM      29.93R
MAYPORT NAS    MOCLDY    76  74  93 S3        29.94R
JACKSONVILLE   MOCLDY    74  73  97 CALM      29.94R
JAX NAS        MOCLDY    81  74  79 E3        29.94R
JAX CRAIG      CLEAR     75  73  93 CALM      29.94R
JAX CECIL      PTCLDY    72  72 100 CALM      29.94R
FERNANDINA BEA FAIR      79  75  89 CALM      29.93R
ST AUGUSTINE   CLOUDY    78  75  90 S3        29.95R

STATION/POSITION SKY/WX   TEMP    WIND        PRES    WAVE   SWELL
                          AIR SEA DIR/SP/G            HT/PER HT/PER
                          (F)     (DEG/KT/KT) (MB)    (FT/S) (FT/S)
SHELL POINT      NOT AVBL
KEATON BEACH               75      40/  2/  3 1013.9R
CEDAR KEY                  77      50/  5/  6 1014.2R
FERNANDINA                 78 84  190/  3/  3 1012.6R
30.7N   81.3W                 81                N/A     3/ 6
MAYPORT                    77 80   CALM  /  1 1013.7R
31.4N   80.9W              80 81   30/  4/  4 1013.2    2/ 7   2/ 7
ST AUGUSTINE               78 79  170/  7/  7 1014.5R

$$
FLZ040-043>046-052-053-057-058-063-144-281200-
INTERIOR CENTRAL FLORIDA

CITY           SKY/WX    TMP DP  RH WIND       PRES   REMARKS
OCALA          CLOUDY    75  73  94 CALM      29.94R FOG
THE VILLAGES     N/A     77  77 100 SW3       29.84R
LEESBURG       CLOUDY    78  75  90 SW8       29.94R
SANFORD        CLOUDY    78  75  90 S7        29.94R
ORLANDO EXEC   CLOUDY    79  76  90 SW13      29.95R
ORLANDO INTL   MOCLDY    77  76  96 S5        29.96R
KISSIMMEE      MOCLDY    77  75  94 S5        29.96
WINTER HAVEN   CLOUDY    77  74  90 S7        29.97R
LAKELAND       CLOUDY    75  75 100 SW5       29.96R
BARTOW         FAIR      73 N/A N/A CALM      29.97R
OKEECHOBEE     CLEAR     73  73 100 SW6       29.99R

$$
FLZ041-047-054-059-064-141-147-281200-
EAST CENTRAL FLORIDA

CITY           SKY/WX    TMP DP  RH WIND       PRES   REMARKS
ORMOND BEACH   MOCLDY    75  73  94 S5        29.93
DAYTONA BEACH  MOCLDY    77  74  90 S6        29.94R
DELAND           N/A     75  75 100 CALM      29.95R
NEW SMYRNA BEA PTCLDY    77  75  94 S9        29.94
JFK SPACE CTR  PTCLDY    78  74  86 S10       29.95R
TITUSVILLE     PTCLDY    75  73  94 S17       29.96
CAPE CANAVERAL PTCLDY    76  75  96 S6        29.96R
PATRICK AFB    PTCLDY    78  75  91 SW10      29.96R
MELBOURNE      PTCLDY    76  74  93 S8        29.97R
VERO BEACH     CLEAR     77  74  90 S6        29.99R
FT PIERCE      CLEAR     77  75  93 S3        29.99R
STUART         PTCLDY    75  73  94 SW5       30.00S

STATION/POSITION SKY/WX   TEMP    WIND        PRES    WAVE   SWELL
                          AIR SEA DIR/SP/G            HT/PER HT/PER
                          (F)     (DEG/KT/KT) (MB)    (FT/S) (FT/S)
28.5N   80.2W              79 80  200/ 16/ 17 1014.3R
28.9N   78.5W              84 84  220/ 12/ 14 1014.6R
TRIDENT PIER               77 77  170/  6/  9 1014.6S
28.4N   80.5W                 77                N/A     2/11
27.5N   80.2W                 76                N/A     1/11

$$
FLZ050-056-061-142-242-148-248-149-249-151-251-155-255-
160-260-281200-
WEST CENTRAL FLORIDA

CITY           SKY/WX    TMP DP  RH WIND       PRES   REMARKS
CRYSTAL RIVER  FAIR      75  73  94 CALM      29.93R FOG
INVERNESS      PTSUNNY   77  77 100 CALM      29.94R FOG
BROOKSVILLE    MOCLDY    77  75  93 SW9       29.95R
ZEPHYRHILLS    CLOUDY    72  72 100 CALM      29.96R
CLEARWATER     LGT RAIN  77  76  96 W7        29.95R
TAMPA INTL     CLOUDY    79  75  87 W12       29.95R
TAMPA EXEC     CLOUDY    79  75  89 W3        29.95R
PLANT CITY     DRIZZLE   79  79 100 SW3       29.97R
MACDILL AFB    MOCLDY    78  78 100 W6        29.95R
PETER O KNIGHT MOCLDY    81  77  89 W5        29.96R
ST PETERSBURG  LGT RAIN  79  76  90 W8        29.94R
SARASOTA       CLEAR     82  74  76 W10       29.95R
VENICE         FAIR      82  75  78 SW14      29.98R

STATION/POSITION SKY/WX   TEMP    WIND        PRES    WAVE   SWELL
                          AIR SEA DIR/SP/G            HT/PER HT/PER
                          (F)     (DEG/KT/KT) (MB)    (FT/S) (FT/S)
CEDAR KEY                  77      50/  5/  6 1014.2R
28.5N   84.5W              86 85  300/ 16/ 17 1013.2R   3/ 4
27.3N   84.2W                 85                N/A     3/ 4
CLEARWATER BEACH           80 83  250/ 15/ 19 1013.6R
MIDDLE TAMPA BAY           81     280/ 14/ 16 1013.6F
VENICE                     83 83  240/ 14/ 16 1014.4R

$$
FLZ066-069-070-075>078-162-262-165-265-281200-
SOUTHWEST FLORIDA AND KEYS

CITY           SKY/WX    TMP DP  RH WIND       PRES   REMARKS
PUNTA GORDA    PTCLDY    77  76  96 S6        29.99R
FT MYERS       PTCLDY    79  75  87 S3        29.98R
SOUTHWEST INTL PTCLDY    77  76  96 S6        29.98R
NAPLES         CLEAR     82  77  84 S6        29.98S
MARCO ISLAND   SUNNY     75  70  83 S3        29.99R
MARATHON       PTCLDY    83  78  85 S3        29.99R
KEY WEST NAS   PTCLDY    82  75  79 S5        30.00R
KEY WEST INTL  PTCLDY    84  75  74 S6        30.00R

STATION/POSITION SKY/WX   TEMP    WIND        PRES    WAVE   SWELL
                          AIR SEA DIR/SP/G            HT/PER HT/PER
                          (F)     (DEG/KT/KT) (MB)    (FT/S) (FT/S)
VENICE                     83 83  240/ 14/ 16 1014.4R
NAPLES                        83              1016.2R
26.0N   85.6W              84 84  260/ 12/ 14 1014.8R   2/ 8   2/ 8
DRY TORTUGAS               83     260/  2/  3 1015.4R
NW FL BAY                  85     190/  7/  9 1015.5
SAND KEY                   84     170/  5/  7 1015.8R
SOMBRERO KEY               84     180/  7/  7 1016.5R
LONG KEY                   84 86  200/  7/  8 1016.7R
MOLASSES REEF              84 87  190/  5/  5 1016.1R

$$
FLZ067-068-071>074-168-172>174-281200-
SOUTHEAST FLORIDA

CITY           SKY/WX    TMP DP  RH WIND       PRES   REMARKS
W PALM BEACH   PTCLDY    76  75  97 S5        30.01R
FT LAUDER-EXEC PTCLDY    78  75  90 CALM      30.00R
FT LAUDERDALE  PTCLDY    80  76  87 SW5       30.00R FOG
POMPANO BEACH  CLEAR     78  75  90 S3        30.00R FOG
PEMBROKE PINES CLEAR     77  74  90 CALM      30.02R
OPA LOCKA      CLEAR     75  75 100 CALM      30.01R
MIAMI          MOCLDY    80  74  81 CALM      30.01R
WEST KENDALL   CLEAR     76  74  93 CALM      30.01R FOG
HOMESTEAD      CLEAR     78  74  88 N2        30.00S

STATION/POSITION SKY/WX   TEMP    WIND        PRES    WAVE   SWELL
                          AIR SEA DIR/SP/G            HT/PER HT/PER
                          (F)     (DEG/KT/KT) (MB)    (FT/S) (FT/S)
PORT EVERGLADES            80     220/  1/  2 1016.0R
VIRGINIA KEY               84 85  210/  6/  7 1015.3R
LAKE WORTH                 78 84  220/  4/  5 1015.3R


USA.gov is the U.S. government's official web portal to all federal, state and local government web resources and services.